User: anonymous   Login
Location: Deerlick Astronomy Village
(33.5614°N, 82.7631°W)
Time: 19:28:46
(UTC-04:00)
Language:

CAS-4A - Orbit

View from above orbital plane
View from above orbital plane
View from above satellite
View from above satellite

Ground track
Ground track

The orbit data is extracted from the following two-line orbital elements,

1 42761U 17034D   20304.65122829  .00000460  00000-0  41236-4 0  9999
2 42761  43.0198   3.3964 0009936 170.5334 324.1835 15.10005073186409
Epoch (UTC): 30 October 2020 15:37:46
Eccentricity: 0.0009936
inclination: 43.0198°
perigee height: 529 km
apogee height: 543 km
right ascension of ascending node: 3.3964°
argument of perigee: 170.5334°
revolutions per day: 15.10005073
mean anomaly at epoch: 324.1835°
orbit number at epoch: 18640

The dashed part of the orbit path shows where the satellite is in the earth's shadow,  

DLR